Lapse_Rate
6.9 7.3 7.0 6.1 6.3 6.4 6.3 6.1 6.2 6.0 6.2 6.4 6.6 6.7 6.9 6.8 6.8 6.9 7.0 7.1 7.2 7.2 7.2 7.0 7.0 6.8 6.8 6.7 6.7 6.6 6.4 6.1 6.0 6.1 6.3 6.3 6.2 6.2 6.1 6.0 5.9 5.8 5.8
6.3 6.9 6.5 7.3 6.8 6.5 6.7 6.6 6.5 6.3 6.2 6.6 6.6 6.5 6.4 6.5 6.7 6.8 6.8 6.9 7.0 7.2 7.1 7.1 7.0 6.9 6.8 6.6 6.7 6.6 6.5 6.3 6.1 6.0 6.1 6.3 6.2 6.2 6.1 6.0 5.9 5.8 5.7
6.4 6.4 6.5 6.2 6.7 7.2 7.2 7.0 6.7 6.5 6.7 6.5 6.5 6.5 6.7 6.6 6.8 6.9 6.8 6.9 7.1 7.1 7.2 7.1 7.0 6.9 6.8 6.6 6.6 6.5 6.5 6.4 6.2 6.0 6.0 6.1 6.2 6.2 6.0 6.0 5.9 5.8 5.6
7.5 6.6 6.1 6.4 6.7 6.7 6.8 7.4 7.2 6.4 6.4 6.5 6.6 6.8 6.6 6.4 6.8 6.7 6.7 6.8 7.0 7.2 7.2 7.2 7.0 6.9 6.7 6.6 6.6 6.5 6.4 6.4 6.2 6.1 5.9 5.9 5.9 5.9 6.1 5.8 5.8 5.7 5.5
7.4 7.4 7.0 6.8 6.8 7.0 6.8 6.9 6.8 6.9 6.6 6.2 6.4 6.7 6.6 6.5 6.4 6.4 6.6 6.7 6.9 7.1 7.1 7.0 7.0 6.9 6.6 6.5 6.6 6.4 6.3 6.2 6.1 5.9 5.8 5.8 5.8 5.9 5.8 5.9 5.8 5.6 5.4
6.6 7.3 6.9 6.8 7.1 7.1 6.9 6.5 6.7 6.8 6.6 6.6 6.5 6.4 6.7 6.6 6.5 6.6 6.7 6.7 6.8 6.8 6.9 6.8 6.8 6.8 6.6 6.3 6.5 6.4 6.2 6.1 6.0 5.9 5.8 5.9 5.9 5.9 5.8 5.7 5.6 5.2 5.2
6.5 6.6 6.6 6.9 7.2 7.1 7.2 6.8 6.6 6.6 6.9 7.1 6.7 6.7 6.9 6.7 6.9 6.8 7.0 6.7 6.8 6.8 6.7 6.9 6.8 6.6 6.4 6.2 6.3 6.4 6.1 6.0 6.0 6.0 6.0 6.0 5.9 5.9 5.8 5.7 5.6 5.4 5.3
6.4 6.3 6.3 6.9 6.9 6.9 7.3 7.2 7.0 6.8 7.0 6.9 6.9 6.7 6.4 6.6 6.5 6.8 6.4 6.7 6.7 6.7 6.5 6.5 6.5 6.4 6.2 6.3 6.3 6.2 6.0 6.0 6.0 6.1 6.1 6.0 5.9 5.9 5.8 5.6 5.5 5.4 5.2
6.8 6.6 6.6 7.2 7.6 7.1 7.1 7.6 7.5 7.3 6.9 6.7 6.9 7.3 7.4 6.8 6.8 7.1 6.7 6.2 6.5 6.6 6.4 6.6 6.3 6.1 6.1 6.1 6.1 6.0 5.9 6.0 6.1 6.1 6.1 6.0 5.9 5.8 5.6 5.4 5.3 5.2 5.1
7.0 6.9 6.8 7.0 7.1 7.4 7.1 7.1 7.5 7.5 7.5 7.4 6.9 7.0 7.3 6.9 6.7 6.8 6.7 6.4 6.6 6.5 6.4 6.2 6.2 6.0 5.9 5.8 5.9 5.8 6.0 6.1 6.1 6.1 6.0 5.8 5.6 5.5 5.4 5.3 5.2 5.1 4.9
6.7 6.8 7.2 7.2 7.4 7.2 7.2 7.0 6.9 7.0 7.1 7.3 6.8 6.8 6.8 6.7 6.6 6.5 5.9 6.3 6.5 6.0 5.9 6.0 5.9 5.7 5.8 5.8 5.8 5.9 6.1 6.0 5.9 5.9 5.7 5.5 5.4 5.3 5.2 5.2 5.1 5.0 4.9
6.8 7.2 7.5 7.6 7.4 7.5 7.3 7.1 7.1 7.2 7.2 6.9 7.0 6.6 6.6 6.8 6.8 6.3 6.1 6.1 6.0 5.8 5.7 5.6 5.6 5.6 5.6 5.7 5.8 6.0 6.1 5.9 5.7 5.5 5.3 5.2 5.2 5.2 5.2 5.1 5.1 5.0 5.1
7.5 7.6 7.6 7.7 7.8 7.5 7.5 7.3 7.1 7.2 7.4 7.4 7.0 5.4 6.1 6.2 6.1 6.0 5.7 5.9 5.4 5.3 5.2 5.2 5.3 5.2 5.3 5.7 5.8 5.8 5.6 5.5 5.5 5.4 5.3 5.1 5.1 5.2 5.1 5.1 5.1 5.3 5.6
7.1 7.4 7.6 7.6 7.7 7.8 7.7 7.4 7.3 7.3 7.4 7.6 7.5 7.0 6.6 5.5 5.5 5.8 5.4 5.3 6.0 5.2 4.6 4.7 5.4 5.2 5.3 5.5 5.6 5.6 5.5 5.1 5.1 5.2 5.1 5.2 5.3 5.1 5.2 5.3 5.5 5.7 5.7
6.9 7.1 7.3 7.6 7.6 7.6 7.7 7.8 7.7 7.6 7.6 7.8 7.6 7.1 6.9 6.6 6.5 6.1 5.8 5.6 5.5 4.9 5.1 5.0 5.0 5.4 5.6 5.5 5.4 5.1 5.4 5.0 5.5 5.5 5.3 5.2 5.2 5.3 5.4 5.7 5.7 5.6 5.7
7.1 7.3 7.3 7.6 7.7 7.6 7.5 7.6 7.7 7.8 7.6 7.7 7.7 7.3 6.3 6.4 5.8 6.0 5.9 5.8 5.1 4.8 5.0 5.5 5.4 5.7 5.3 5.1 5.1 5.2 5.2 4.9 5.2 5.3 5.2 5.3 5.5 5.6 5.7 5.7 5.7 5.7 5.7
7.4 7.2 7.5 7.4 7.7 7.7 7.6 7.5 7.4 7.4 7.5 6.8 6.6 6.7 7.0 6.6 5.7 5.3 5.4 5.1 4.7 5.3 4.7 5.4 5.8 5.2 5.1 5.2 4.9 5.3 5.0 5.0 5.2 5.4 5.3 5.7 5.6 5.6 5.6 5.6 5.6 5.5 5.4
7.2 7.4 7.2 7.4 7.6 7.6 7.5 7.5 6.8 6.7 7.1 7.2 7.2 7.3 7.1 6.2 4.9 4.7 4.8 5.2 5.0 4.5 5.3 5.4 5.0 4.8 5.1 5.1 5.1 5.0 4.9 5.1 5.4 5.5 5.5 5.5 5.5 5.5 5.5 5.5 5.4 5.2 5.2
7.5 7.4 7.4 7.4 7.4 7.5 7.3 7.0 6.6 7.2 7.2 7.0 6.8 6.3 5.9 4.7 4.9 4.8 5.1 4.7 4.5 5.4 5.2 5.0 4.7 5.1 5.2 5.5 5.3 5.0 5.2 5.6 5.9 5.7 5.5 5.4 5.4 5.5 5.4 5.2 5.2 5.2 5.2
7.4 7.6 7.4 7.3 7.5 7.3 7.2 6.9 6.6 6.5 6.7 6.3 5.9 6.3 5.8 5.4 5.0 5.1 4.9 5.3 5.4 4.9 4.9 4.8 5.3 5.2 5.2 5.4 5.4 6.0 5.9 5.8 5.6 5.6 5.3 5.4 5.3 5.1 5.0 5.1 5.1 5.3 5.4
7.2 7.3 7.3 7.3 7.5 7.3 6.9 6.7 6.7 6.3 6.3 5.8 5.7 5.7 5.5 5.5 5.3 5.1 5.1 5.0 5.0 5.0 4.9 5.2 5.4 5.7 5.7 6.0 6.0 6.0 5.9 5.5 5.3 5.3 5.3 5.2 5.0 5.0 4.9 5.1 5.3 5.2 5.1
7.1 7.0 7.3 7.0 7.5 7.2 6.6 6.4 6.3 6.2 5.7 5.6 5.7 5.7 5.5 5.4 5.2 5.1 4.7 4.8 5.2 5.1 5.2 5.4 6.0 6.0 5.9 6.0 6.0 5.7 5.2 5.2 5.4 5.4 5.2 5.0 4.8 5.0 5.1 5.2 5.2 5.0 4.8
7.1 7.0 7.0 7.1 7.1 6.8 6.5 6.1 5.9 5.8 5.7 5.5 5.5 5.5 5.4 5.2 5.2 4.9 4.8 5.1 5.0 5.2 5.8 6.1 5.9 5.9 5.9 5.6 5.2 5.2 5.4 5.5 5.4 5.2 4.9 5.0 5.1 5.2 5.1 5.0 4.9 4.8 4.6
7.3 7.0 6.8 6.7 6.4 5.8 5.9 5.7 5.8 5.9 5.9 5.8 5.5 5.2 5.0 5.0 4.9 5.4 5.4 4.8 5.2 5.8 5.8 5.7 5.6 5.7 5.6 5.5 5.6 5.6 5.6 5.4 5.0 4.9 5.1 5.2 5.2 5.0 4.9 4.8 4.6 4.6 4.7
7.2 6.9 6.8 6.5 5.9 5.7 5.8 5.8 5.8 5.6 5.5 5.2 5.1 4.9 4.8 4.9 5.5 5.3 5.0 5.3 5.4 5.5 5.7 5.7 5.7 5.6 5.5 5.6 5.7 5.5 5.2 5.0 5.0 5.1 5.1 5.0 4.9 4.9 4.7 4.7 4.9 5.1 5.1
6.9 7.0 6.9 6.6 6.0 5.9 5.9 5.5 5.6 5.5 5.5 5.5 5.2 5.1 5.2 5.1 5.0 5.0 4.9 5.3 5.7 5.6 5.7 5.7 5.5 5.5 5.6 5.6 5.5 5.3 5.0 5.0 5.1 5.1 5.0 4.9 4.7 4.7 4.9 5.2 5.2 5.2 5.4
Wind_Speed
19 13 15 14 14 14 15 16 17 16 11 9 8 8 7 7 7 8 11 12 10 10 10 7 7 6 4 4 5 5 6 4 1 3 4 4 3 3 3 3 4 7 6
16 19 17 17 18 17 17 16 17 16 13 10 8 7 8 6 6 6 10 12 12 10 9 8 5 6 5 5 4 4 4 4 1 2 2 4 3 3 2 2 3 4 6
18 18 19 17 18 18 20 20 18 17 15 14 9 7 7 5 5 6 6 9 12 11 9 10 8 6 5 4 4 3 2 4 3 4 3 2 2 4 3 3 3 3 3
19 15 19 19 19 20 19 19 19 18 15 15 12 15 11 10 7 8 7 7 12 11 10 10 9 8 5 5 4 3 3 3 4 3 3 4 3 1 4 3 3 3 4
18 18 14 20 21 18 18 19 21 19 15 16 14 12 12 8 8 8 10 8 8 11 10 10 8 6 5 5 5 4 3 3 3 3 2 2 2 2 2 3 3 3 3
19 16 13 14 15 14 15 15 19 19 21 16 14 15 12 11 10 9 9 7 6 6 9 10 8 8 7 5 5 5 4 4 4 3 3 2 2 3 2 1 3 2 2
14 15 14 10 12 16 16 16 18 19 18 21 16 14 13 13 14 12 10 10 7 6 7 8 7 6 8 8 7 6 5 4 3 4 3 3 3 3 3 2 2 1 0
11 9 12 12 13 13 16 17 18 18 18 18 19 15 12 7 8 10 9 8 8 8 10 9 10 10 10 9 8 4 4 5 4 5 4 3 3 3 3 2 2 2 1
10 12 8 9 13 14 15 16 16 16 16 17 16 17 14 12 9 9 9 8 9 8 9 11 8 9 9 9 7 5 5 5 5 5 3 4 3 3 3 2 2 2 2
5 9 8 8 10 13 12 12 13 14 15 16 15 16 17 15 12 10 11 12 9 10 10 9 9 8 8 8 6 5 6 6 4 4 5 4 3 3 3 2 2 2 2
5 6 7 6 8 9 12 13 14 15 14 15 14 15 16 16 14 11 10 10 12 11 10 10 9 8 8 7 6 6 6 6 5 5 5 5 4 3 3 2 2 2 1
7 6 7 7 7 9 12 14 13 15 16 13 13 13 14 16 16 13 13 12 11 10 9 9 9 8 8 7 8 7 7 7 6 5 5 5 3 3 3 2 1 1 3
9 7 7 6 6 7 9 11 12 12 14 15 15 15 15 13 14 15 13 13 12 11 9 9 9 7 6 7 7 8 7 6 6 5 5 4 3 2 2 2 2 2 3
8 8 7 6 7 4 3 4 6 10 13 15 16 15 14 14 13 16 15 14 15 13 9 8 10 8 8 7 8 8 7 5 5 5 4 4 3 3 3 2 3 2 3
10 10 9 7 7 6 5 7 10 10 11 14 15 14 15 14 14 16 14 14 12 11 13 11 9 9 7 6 6 6 6 5 5 5 4 5 6 5 4 3 4 5 4
12 10 10 10 10 9 7 8 10 11 12 13 15 15 14 14 15 14 15 15 14 12 11 12 10 9 6 9 8 6 6 4 3 4 4 4 5 1 3 4 6 6 5
12 9 12 12 11 12 11 10 10 12 13 14 14 16 14 15 13 13 16 15 13 13 10 10 10 10 7 10 8 8 4 3 3 3 1 1 1 1 3 5 7 7 6
16 9 11 12 13 13 12 11 12 11 14 14 14 14 15 16 14 12 14 13 12 11 11 10 9 8 6 10 9 6 4 3 3 2 2 2 2 2 4 5 6 5 4
16 10 12 13 13 14 14 13 13 13 13 15 15 17 17 16 15 14 13 12 10 11 9 7 8 8 6 9 8 4 3 3 2 2 1 2 3 3 6 6 6 5 6
14 4 12 13 15 14 15 15 13 15 15 14 15 14 15 16 15 14 13 11 11 10 7 7 5 10 7 9 6 1 2 0 1 1 1 4 3 6 7 6 5 6 6
7 5 11 12 13 15 16 15 15 14 14 15 15 14 14 14 14 13 11 10 10 9 9 8 7 6 7 6 6 4 0 0 1 0 1 1 3 7 9 10 5 6 7
3 6 9 9 10 13 14 15 15 16 17 17 17 15 15 11 10 13 10 10 10 9 8 8 6 5 5 5 6 3 1 2 2 2 1 2 6 10 11 9 12 12 13
2 5 8 10 10 10 14 17 16 16 17 17 16 15 14 12 12 12 10 8 8 6 7 5 5 5 3 4 4 2 2 3 2 3 5 9 11 11 9 10 11 13 4
4 5 9 11 11 10 13 16 16 16 17 18 16 13 12 12 10 8 7 6 5 5 5 5 4 4 3 3 3 3 3 4 4 4 4 7 5 10 8 7 5 2 3
3 6 8 9 10 12 12 14 16 15 15 15 13 12 10 10 9 7 5 5 5 4 5 4 4 4 4 3 2 2 2 3 4 5 4 3 3 3 3 3 4 4 4
5 6 8 14 13 13 12 11 12 13 14 13 10 8 8 7 7 7 7 11 10 9 8 5 2 4 3 3 1 3 5 6 8 4 3 4 3 3 3 4 5 6 7
Wind_Direction
220 209 177 189 183 187 187 188 181 179 175 172 173 171 175 176 174 171 161 168 157 161 156 150 151 162 142 136 130 116 123 111 121 139 128 120 128 103 118 91 66 58 71
225 209 183 180 181 189 186 196 184 176 179 174 177 178 174 173 166 161 166 173 165 168 161 156 158 158 139 142 146 152 119 105 72 280 212 162 155 138 116 94 69 62 77
229 216 199 185 180 189 192 185 181 180 176 176 173 168 140 152 159 169 173 174 170 171 167 163 161 157 144 136 121 128 168 124 95 35 314 197 102 146 153 123 115 60 82
234 223 207 192 191 196 193 184 178 180 178 177 174 170 168 168 186 174 164 168 171 167 166 163 158 156 141 140 123 122 124 143 128 124 57 25 6 332 152 151 130 92 76
229 228 216 203 193 190 188 187 180 168 176 177 179 173 174 176 165 162 161 166 167 164 163 164 156 145 150 132 127 136 97 83 108 90 133 67 60 39 6 122 119 147 104
229 228 226 190 200 187 186 185 186 177 167 176 177 180 183 158 157 161 165 163 161 157 165 157 158 150 140 138 133 116 112 94 90 97 65 43 22 56 22 36 71 347 93
249 227 221 195 205 192 181 189 188 181 177 171 172 179 172 166 160 163 161 158 161 161 167 161 151 158 147 144 141 112 115 119 103 97 92 75 67 47 52 35 45 319 104
285 267 235 180 209 211 188 189 192 184 177 183 172 166 167 166 159 166 166 161 164 161 161 157 164 151 153 150 130 126 123 118 119 105 85 93 84 66 50 36 2 324 302
251 239 225 234 205 203 201 192 195 187 185 180 175 162 157 154 156 166 166 161 156 153 158 163 148 150 158 151 143 131 137 125 117 105 104 96 84 67 59 38 17 358 322
301 284 272 236 234 208 202 192 195 196 186 176 190 165 160 153 146 149 171 157 146 148 157 148 149 155 150 145 137 136 133 126 112 117 113 100 94 88 65 42 30 3 329
332 297 281 272 250 222 205 198 192 188 186 177 183 173 158 146 143 157 156 148 142 156 149 147 146 149 146 144 141 129 124 119 118 109 104 92 66 70 68 54 38 346 323
308 301 289 276 257 240 207 198 192 182 183 166 159 164 150 146 142 143 146 142 134 140 140 137 140 139 140 138 135 131 127 125 115 110 107 100 96 80 64 11 38 314 313
296 285 276 266 255 245 230 203 194 179 164 153 158 153 152 133 137 134 131 121 126 123 121 128 123 124 120 119 119 114 109 109 107 104 102 98 66 88 68 357 336 315 311
281 268 256 241 238 222 192 171 148 158 154 151 143 148 136 135 143 134 129 131 126 121 119 119 125 124 126 117 120 122 120 108 101 92 77 77 62 29 0 302 295 296 311
273 253 241 219 212 184 145 143 143 148 142 142 135 131 134 130 127 120 122 117 114 124 122 124 116 119 116 124 114 118 111 127 128 114 97 71 62 57 19 343 342 333 316
279 250 232 209 195 177 159 151 145 139 136 123 118 116 118 119 111 123 118 118 118 113 122 127 128 104 106 103 95 120 107 115 119 102 104 114 178 77 314 313 303 301 304
279 248 222 205 186 172 157 148 142 128 120 120 119 117 121 109 114 119 126 118 121 120 134 115 106 109 131 122 110 83 102 116 99 97 99 35 76 269 342 313 291 277 280
283 240 212 198 180 162 148 135 135 129 126 127 125 124 122 122 131 132 118 121 116 129 114 106 110 124 115 119 111 107 122 124 122 87 50 351 339 37 338 323 309 301 293
304 268 196 187 171 164 147 143 137 135 133 137 138 137 133 131 129 121 110 116 124 96 103 120 133 115 117 122 127 187 147 121 124 97 61 353 318 1 330 309 296 322 314
300 201 169 172 160 156 152 142 140 141 139 138 134 127 127 128 126 126 126 116 109 120 126 114 101 130 120 136 128 66 114 135 98 119 195 202 281 323 318 303 309 306 314
302 166 166 163 161 154 152 144 140 142 128 122 120 117 114 116 119 115 114 121 121 127 132 131 135 136 145 127 107 79 84 240 323 293 297 309 305 314 306 303 305 302 324
5 124 152 149 156 154 149 141 139 136 135 133 127 124 126 130 125 119 125 132 129 137 136 135 132 139 133 103 113 72 349 322 290 295 286 288 317 306 308 305 299 308 308
214 166 152 142 143 165 146 132 134 134 128 126 124 123 123 122 120 124 130 119 131 135 143 149 143 137 128 119 129 170 194 235 278 305 320 305 294 298 301 307 314 306 286
185 146 147 150 147 142 134 126 131 130 124 119 118 117 116 113 115 116 116 127 138 140 135 138 133 126 148 152 153 171 208 211 238 264 292 301 301 293 288 292 294 316 326
123 160 150 134 119 116 117 116 122 121 114 106 107 110 113 115 110 104 117 114 96 114 134 125 136 154 159 123 91 359 327 338 323 320 295 306 287 295 313 323 343 351 343
86 100 102 109 105 103 95 97 100 103 105 104 109 111 111 112 114 110 91 80 106 94 83 97 119 145 100 95 336 315 307 301 295 296 281 275 323 326 335 348 313 307 307